map of SVL home
Great Circle Mapper logo
SVL - Airport
Location
City:  Savonlinna, Finland
ICAO / IATA:EFSA / SVL

Details
Type:Airport (Aerodrome, Airfield)
Use:Public/Civil
Latitude:6156'35"N (61.943064)
Longitude:2856'42"E (28.945136)
Datum:WGS 1984
Elevation:311 ft (95 m)
Variation:10.6E (WMM2015 magnetic declination)
Runways:1
Longest:7546 × 148 ft (2300 × 45 m), paved

Time
Time Zone:UTC+2 (DST+3)
Local Time:

Weather
METAR:EFSA 190550Z AUTO 14004KT 110V180 3100 -SHRA BR OVC002 00/00 Q0989

Related Locations
Nearby:
Farthest:NZWD: 11006 mi / 17712 km
McMurdo Station [Williams Field], Ross Island, AQ

Find:

   beyond  
but within

Other Information
Maps:
NOTAMs:
Links:
Sources:

  
flag of Finland   

Sectional Chart

Flight Planning
at skyvector.com

Satellite Image

Google Maps Satellite View

 

Copyright © 2004-2014 Karl L. Swartz. All rights reserved.
The Great Circle Mapper name and logo are trademarks of the Great Circle Mapper.
All other trademarks mentioned herein belong to their respective owners.
Please see credits for attibutions and further copyright information.

  Follow gcmap on Facebook Follow gcmap on Twitter

hCard Microformat

Geo Microformat